1998-067UF

Last updated on Fri Sep 16 2022 00:02:04 GMT+0000 (Coordinated Universal Time)

1 53768U 98067UF 22257.40865726 .00031316 00000+0 53165-3 0 9991 2 53768 51.6409 254.5194 0001333 328.9266 31.1645 15.51191540 1252
UTC large
Height (km)
Speed (km/s)
/
Latitude / Longitude
Inclination (degrees)
Orbital Period (minutes)
Azimuth
Elevation
Range (km)
Doppler Factor

Next 0 passes for location: London (51.5072 / 0.1276)

Sorry there are no passes over London.